Back to catalog

SHARJAHSAT-2

AliveScienceSSO
NORAD 68444·PAYLOAD·🇦🇪 UAE

Launched Mar 30, 2026 from Vandenberg Space Force Base

Loading…

Next Passes (next 24 hours)

TLE

FreshSource: Space-Track

Epoch: Sep 14, 2026, 14:53 UTC

1 68444U 26067AE  26257.62047379  .00005515  00000-0  26031-3 0  9998
2 68444  97.4674 215.1049 0003074  65.8695 294.2861 15.19853890 25525

Track SHARJAHSAT-2 in real time with AllMySat

Download on the App Store